Zurück zum Katalog

FENGYUN 1C DEB

AktivPO
NORAD 31887·DEBRIS·🇨🇳 China

Gestartet May 10, 1999 von Taiyuan Satellite Launch Center

Loading…

Nächste Überflüge (nächste 24 Stunden)

TLE

AktuellSource: Space-Track

Epoche: Sep 13, 2026, 05:32 UTC

1 31887U 99025CKN 26256.23121995  .00005085  00000-0  10433-2 0  9996
2 31887  99.5231 353.1589 0020214 256.5279 103.3665 14.61098387  6071

Verfolge FENGYUN 1C DEB in Echtzeit mit AllMySat

Download on the App Store